Tracking 31011 objects as of 13-Jul-2025
HD Live streaming from Space Station
objects crossing your sky now

TITAN 3C TRANSTAGE DEB

Track TITAN 3C TRANSTAGE DEB now!
10-day predictions


NORAD ID: 1642
Int'l Code: 1965-082D
Perigee: 608.9 km
Apogee: 641.3 km
Inclination: 32.1 °
Period: 97.1 minutes
Semi major axis: 6996 km
RCS: 2.2943 m2 (large)
Launch date: October 15, 1965
Source: United States (US)
Launch site: AIR FORCE EASTERN TEST RANGE (AFETR)

Note: This is SATELLITE DEBRIS
Your satellite tracking list
Your tracking list is empty




NASA's NSSDC Master Catalog

Two Line Element Set (TLE):
1  1642U 65082D   25193.85570203  .00000801  00000-0  89310-4 0  9998
2  1642  32.0929 103.8239 0023148  40.4147 319.8219 14.83620262208359
Source of the keplerian elements: AFSPC